Flag for Germany Weather past 2 weeks in Waren (Müritz), Mecklenburg-Western Pomerania, Germany

Now
32 °F

Fog.


Feels Like: 32 °F
Forecast: 36 / 57 °F
Wind: 2 mph from West

Location: Laage


UV Index: 3 (Moderate)

Visibility: N/A


Pressure: 30.42 "Hg

Humidity: 93%

Dew point: 30 °F

Location of Waren (Müritz)Location

Historic Weather in Waren (Müritz)

°F

Waren (Müritz) temperature yesterday

Maximum temperature yesterday: 50 °F (at 12:20 PM)
Minimum temperature yesterday: 39 °F (at 6:20 AM)
Average temperature yesterday: 45 °F

Past Weeks' High & Low Weather Summary

 TemperatureHumidityPressure
High64 °F (Apr 7, 2:20 PM)100% (Apr 1, 5:20 AM)30.42 "Hg (Apr 1, 5:20 AM)
Low30 °F (Apr 16, 5:20 AM)41% (Apr 12, 4:20 PM)29.59 "Hg (Apr 14, 7:20 AM)
Average47 °F79%29.94 "Hg
* Reported Apr 1 5:20 AM — Apr 16 5:58 AM, Waren (Müritz), Weather by CustomWeather, © 2014

Note: Actual official high and low records may vary slightly from our data, if they occured in-between our weather recording intervals... More about our weather records

Advertising

Historic Weather Conditions — Data for Previous 24 hours

 ConditionsComfort  
Time TempWeatherWind HumidityBarometerVisibility
5:58 AM
Apr 16
30 °FIce fog.3 mph93%30.42 "Hg0 mi
5:20 AM30 °FPassing clouds.No wind93%30.39 "HgN/A
4:20 AM32 °FChilly.No wind93%30.36 "HgN/A
3:20 AM32 °FChilly.1 mph93%30.36 "HgN/A
2:20 AM34 °FChilly.No wind93%30.36 "HgN/A
1:20 AM36 °FPassing clouds.1 mph87%30.33 "HgN/A
12:20 AM36 °FPassing clouds.5 mph93%30.33 "HgN/A
11:20 PM
Apr 15
39 °FPassing clouds.5 mph81%30.30 "HgN/A
10:20 PM41 °FPassing clouds.5 mph76%30.27 "HgN/A
9:20 PM45 °FPassing clouds.6 mph66%30.27 "HgN/A
8:20 PM46 °FBroken clouds.7 mph62%30.24 "HgN/A
7:20 PM46 °FScattered clouds.10 mph57%30.21 "HgN/A
6:20 PM48 °FPartly sunny.12 mph66%30.18 "HgN/A
5:20 PM48 °FPartly sunny.14 mph58%30.15 "HgN/A
4:20 PM50 °FPartly sunny.17 mph54%30.15 "HgN/A
3:20 PM48 °FPartly sunny.16 mph58%30.12 "HgN/A
2:20 PM48 °FBroken clouds.15 mph54%30.12 "HgN/A
1:20 PM50 °FBroken clouds.18 mph58%30.09 "HgN/A
12:20 PM50 °FPartly sunny.15 mph62%30.09 "HgN/A
11:20 AM48 °FBroken clouds.15 mph66%30.07 "HgN/A
10:20 AM48 °FPassing clouds.15 mph66%30.04 "HgN/A
9:20 AM45 °FScattered clouds.17 mph76%30.01 "HgN/A
8:20 AM43 °FPassing clouds.13 mph81%30.01 "HgN/A
7:20 AM41 °FPassing clouds.13 mph81%29.98 "HgN/A
Weather by CustomWeather, © 2014

See weather overview